Regional Weather Roundup
Issued by NWS

Home | Current Version | Previous Version | Graphics & Text | Print | Product List | Glossary On
Versions: 1 2 3 4 5 6 7 8 9 10 11 12 13 14 15 16 17 18 19 20 21 22 23 24 25 26 27 28 29 30 31 32 33 34 35 36 37 38 39 40 41 42 43 44 45 46 47 48 49 50
000
ASUS45 KABQ 181710
RWRNM
NEW MEXICO REGIONAL WEATHER ROUNDUP
NATIONAL WEATHER SERVICE ALBUQUERQUE NM
1100 AM MDT FRI AUG 18 2017

NOTE: "FAIR" MEANS FEW OR NO CLOUDS BELOW 12,000 FEET AGL WITH NO
       SIGNIFICANT WEATHER OR OBSTRUCTIONS TO VISION.

      THIS PRODUCT IS RELEASED AS TWO VERSIONS.  ONE VERSION NEAR
      THE TOP OF THE HOUR CONTAINING PRELIMINARY DATA FROM ALBUQUERQUE
      AND OTHER STATIONS.  A FINAL VERSION WITH ADDITIONAL DATA IS
      ISSUED ABOUT 10 MINUTES AFTER THE HOUR.

NMZ501-503-504-510>518-181800-
NORTHWEST PLATEAU/NORTHCENTRAL MOUNTAINS

CITY           SKY/WX    TMP DP  RH WIND       PRES   REMARKS
FARMINGTON     FAIR      77  42  28 VRB3      30.26S
LOS ALAMOS     FAIR      75  33  21 NE5       30.40S
SANTA FE       FAIR      79  39  23 N9        30.32F
TAOS           FAIR      75  38  26 VRB3      30.41F
ANGEL FIRE     PTSUNNY   67  35  29 CALM      30.48S

$$
NMZ402-403-502-505>509-181800-
WESTCENTRAL MOUNTAINS/SOUTHWEST MOUNTAINS

CITY           SKY/WX    TMP DP  RH WIND       PRES   REMARKS
GALLUP         FAIR      78  31  17 VRB6      30.34F
GRANTS         FAIR      78  26  15 N5        30.35F
SILVER CITY    FAIR      84  40  20 W3        30.25S

$$
NMZ407-409-411-412-181800-
SOUTHERN DESERTS

CITY           SKY/WX    TMP DP  RH WIND       PRES   REMARKS
DEMING         FAIR      84  48  28 E3        30.17F
LAS CRUCES     FAIR      84  53  35 S3        30.19S
HOLLOMAN AFB   FAIR      91  57  32 CALM      30.18S
ALAMOGORDO     FAIR      82  55  39 NW3       30.18S
T OR C         FAIR      86  42  21 VRB5      30.20S

$$
NMZ519>523-181800-
CENTRAL VALLEYS/CENTRAL HIGHLANDS

CITY           SKY/WX    TMP DP  RH WIND       PRES   REMARKS
ALBUQUERQUE    FAIR      81  36  19 CALM      30.26S
DOUBLE EAGLE   MOSUNNY   79  39  24 E9        30.30S
MORIARTY ARPT  FAIR      82  43  24 CALM      30.32S
CLINES CORNERS FAIR      79  41  25 W8        30.37S
BELEN          FAIR      82  32  16 NW9       30.25S
SOCORRO        FAIR      84  38  19 NE6       30.22F

$$
NMZ524>526-539-540-181800-
SOUTHCENTRAL MOUNTAINS

CITY           SKY/WX    TMP DP  RH WIND       PRES   REMARKS
RUIDOSO        FAIR      81  37  21 NE5       30.37S

$$
NMZ527>531-181800-
NORTHEAST HIGHLANDS/NORTHEAST PLAINS

CITY           SKY/WX    TMP DP  RH WIND       PRES   REMARKS
LAS VEGAS      FAIR      77  43  29 VRB3      30.35S
RATON          FAIR      78  51  38 E7        30.30F
CLAYTON        FAIR      79  57  46 SW14      30.22F

$$
NMZ532>537-181800-
EASTCENTRAL PLAINS

CITY           SKY/WX    TMP DP  RH WIND       PRES   REMARKS
SANTA ROSA     FAIR      81  56  41 NE6       30.20S
TUCUMCARI      FAIR      85  57  38 S8        30.15F
CANNON AFB     FAIR      77  71  83 SE13G18   30.22S
CLOVIS AIRPORT FAIR      78  66  66 SE14      30.21F

$$
NMZ028-029-538-181800-
SOUTHEAST PLAINS

CITY           SKY/WX    TMP DP  RH WIND       PRES   REMARKS
ROSWELL        FAIR      85  62  46 SE7       30.13F
ARTESIA        FAIR      84  64  51 E10       30.13S
CARLSBAD       FAIR      84  67  56 S8        30.11S
HOBBS          SUNNY     82  64  54 S8G14     30.16S


$$



USA.gov is the U.S. government's official web portal to all federal, state and local government web resources and services.